Regional Weather Roundup
Issued by NWS

Home | Current Version | Previous Version | Text Only | Print | Product List | Glossary On
Versions: 1 2 3 4 5 6 7 8 9 10 11 12 13 14 15 16 17 18 19 20 21 22 23 24 25 26 27 28 29 30 31 32 33 34 35 36 37 38 39 40 41 42 43 44 45 46 47 48 49 50
000
ASUS43 KLSX 301407
RWRMO

WEATHER SUMMARY FOR MISSOURI
NATIONAL WEATHER SERVICE SPRINGFIELD MO
900 AM CDT TUE SEP 30 2014

NOTE: "FAIR" INDICATES FEW OR NO CLOUDS BELOW 12,000 FEET WITH NO
       SIGNIFICANT WEATHER AND/OR OBSTRUCTIONS TO VISIBILITY.
       CURRENT SKY AND/OR WEATHER CONDITIONS ARE NOT AVAILABLE FOR
       CHILLICOTHE AND FARMINGTON.

MOZ001>031-035>038-043-044-053-054-301500-
...NORTHERN AND WESTERN MISSOURI...

CITY           SKY/WX    TMP DP  RH WIND       PRES   REMARKS
KANSAS CTY INT PTSUNNY   67  60  78 SE9       29.92F
KANSAS C DTWN  PTSUNNY   72  60  66 S3        29.92S
LEE`S SUMMIT   MOSUNNY   69  58  67 S6        29.93F
ST JOSEPH      PTSUNNY   69  61  75 VRB3      29.91F
CHILLICOTHE      N/A     65  60  84 E3        29.96S
KIRKSVILLE     FOG       60  59  96 E9        29.97F VSB 1/2

$$
MOZ066>068-077>081-088>096-101>105-301500-
...SOUTHWEST MISSOURI...

CITY           SKY/WX    TMP DP  RH WIND       PRES   REMARKS
SPRINGFIELD    SUNNY     66  59  78 S9        29.97S
JOPLIN         SUNNY     69  61  75 S7        29.95S

$$
MOZ032>034-039>042-045>050-055>058-069>072-301500-
...CENTRAL MISSOURI...

CITY           SKY/WX    TMP DP  RH WIND       PRES   REMARKS
COLUMBIA       SUNNY     66  59  78 S6        29.96S
JEFFERSON CITY SUNNY     61  58  90 SE5       29.96S FOG
ROLLA          SUNNY     71  59  65 S7        29.96S
SEDALIA        SUNNY     68  58  70 S5        29.95F
WHITEMAN AFB   MOSUNNY   67  60  78 S3        29.93F
OSAGE BEACH    SUNNY     63  57  82 CALM      29.96F

$$
MOZ051-052-059>065-301500-
...EAST CENTRAL MISSOURI...

CITY           SKY/WX    TMP DP  RH WIND       PRES   REMARKS
ST LOUIS INTL  MOSUNNY   69  60  73 NE5       29.98R
SPIRIT OF STL  SUNNY     63  59  87 CALM      29.96S
ST CHARLES     SUNNY     68  61  78 E3        29.96F

$$
MOZ072>076-082>087-097>100-106>115-301500-
...SOUTH CENTRAL AND SOUTHEAST MISSOURI...

CITY           SKY/WX    TMP DP  RH WIND       PRES   REMARKS
CAPE GIRARDEAU SUNNY     64  61  90 CALM      29.97R
FARMINGTON     SUNNY     61  57  88 CALM      30.00S
POPLAR BLUFF   SUNNY     65  58  78 CALM      29.96S
WEST PLAINS    SUNNY     68  59  73 CALM      30.00S

$$



USA.gov is the U.S. government's official web portal to all federal, state and local government web resources and services.